Weather History for Uvalde, TX

Change the Weather History Date:

Thursday, March 28, 2013

  Actual Average (KHDO) Record (KHDO)
Temperature  
Mean Temperature 66 °F -  
Max Temperature 72 °F 72 °F 97 °F (2014)
Min Temperature 60 °F 50 °F 37 °F (2005)
Cooling Degree Days 1    
Growing Degree Days 16 (Base 50)    
Moisture  
Dew Point 55 °F    
Average Humidity 68    
Maximum Humidity 79    
Minimum Humidity 59    
Precipitation  
Precipitation 0.00 in - - ()
Sea Level Pressure  
Sea Level Pressure 30.14 in    
Wind  
Wind Speed 11 mph (SE)    
Max Wind Speed 17 mph    
Max Gust Speed 23 mph    
Visibility 10 miles    
Events      
Averages and records for this station are not official NWS values.
T = Trace of Precipitation, MM = Missing Value Source: NWS Daily Summary

Daily Weather History Graph

Daily Weather History Graph

Search for Another Location

Airport:

Trip Planner

Search our weather history database for the weather conditions in past years. The results will help you decide how hot, cold, wet, or windy it might be!

Date:

Astronomy

Mar. 28, 2013 Rise Set
Actual Time 7:33 AM CDT 7:55 PM CDT
Civil Twilight 7:09 AM CDT 8:18 PM CDT
Nautical Twilight 6:41 AM CDT 8:46 PM CDT
Astronomical Twilight 6:13 AM CDT 9:15 PM CDT
Moon 9:37 PM CDT (3/28) 8:11 AM CDT (3/28)
Length of Visible Light 13h 09m
Length of Day
12h 22m
Full, 98% of the Moon is Illuminated
Mar 28
Full
Apr 2
Last Quarter
Apr 10
New
Apr 18
First Quarter
Apr 25
Full

Hourly Weather History & Observations

Time (CDT) Temp. Dew Point Humidity Pressure Visibility Wind Dir Wind Speed Gust Speed Precip Events Conditions
12:15 AM 62.8 °F 48.4 °F 59% 30.18 in 10.0 mi SE 10.4 mph 16.1 mph N/A   Overcast
12:35 AM 61.9 °F 48.4 °F 61% 30.18 in 10.0 mi SE 11.5 mph - N/A   Overcast
12:55 AM 61.2 °F 48.4 °F 63% 30.17 in 10.0 mi SE 9.2 mph - N/A   Overcast
1:15 AM 61.0 °F 49.1 °F 65% 30.17 in 10.0 mi SE 9.2 mph - N/A   Overcast
1:35 AM 61.0 °F 49.1 °F 65% 30.17 in 10.0 mi SE 10.4 mph - N/A   Overcast
1:55 AM 60.4 °F 49.1 °F 66% 30.17 in 10.0 mi SE 11.5 mph - N/A   Overcast
2:15 AM 60.3 °F 49.1 °F 67% 30.16 in 10.0 mi SE 9.2 mph - N/A   Overcast
2:35 AM 60.4 °F 49.5 °F 67% 30.15 in 10.0 mi SE 11.5 mph - N/A   Overcast
2:55 AM 60.4 °F 49.6 °F 68% 30.15 in 10.0 mi SE 9.2 mph - N/A   Overcast
3:15 AM 60.6 °F 50.0 °F 68% 30.15 in 10.0 mi SE 10.4 mph - N/A   Overcast
3:35 AM 60.3 °F 50.0 °F 69% 30.13 in 10.0 mi SE 10.4 mph - N/A   Overcast
3:55 AM 60.3 °F 50.2 °F 69% 30.13 in 10.0 mi SE 11.5 mph 16.1 mph N/A   Overcast
4:15 AM 60.3 °F 50.4 °F 70% 30.12 in 10.0 mi SE 9.2 mph - N/A   Overcast
4:35 AM 60.3 °F 50.9 °F 71% 30.12 in 10.0 mi SE 10.4 mph - N/A   Mostly Cloudy
4:55 AM 60.3 °F 50.9 °F 71% 30.12 in 10.0 mi SE 9.2 mph - N/A   Mostly Cloudy
5:15 AM 60.3 °F 50.9 °F 71% 30.13 in 10.0 mi SE 6.9 mph - N/A   Overcast
5:35 AM 60.3 °F 51.1 °F 72% 30.13 in 10.0 mi SE 6.9 mph - N/A   Overcast
5:55 AM 60.3 °F 51.6 °F 73% 30.13 in 10.0 mi SE 8.1 mph - N/A   Mostly Cloudy
6:15 AM 60.3 °F 51.8 °F 74% 30.13 in 10.0 mi SE 8.1 mph - N/A   Mostly Cloudy
6:35 AM 60.3 °F 51.8 °F 74% 30.13 in 10.0 mi ESE 9.2 mph - N/A   Mostly Cloudy
7:15 AM 60.3 °F 52.0 °F 74% 30.13 in 10.0 mi ESE 6.9 mph - N/A   Overcast
7:55 AM 60.3 °F 52.3 °F 75% 30.14 in 10.0 mi SE 9.2 mph - N/A   Mostly Cloudy
8:15 AM 60.3 °F 52.7 °F 76% 30.15 in 10.0 mi ESE 8.1 mph - N/A   Mostly Cloudy
8:35 AM 60.8 °F 53.6 °F 77% 30.15 in 10.0 mi SE 9.2 mph - N/A   Mostly Cloudy
8:55 AM 61.0 °F 53.8 °F 77% 30.16 in 10.0 mi SE 10.4 mph - N/A   Mostly Cloudy
9:15 AM 61.0 °F 54.5 °F 79% 30.16 in 10.0 mi South 6.9 mph - N/A   Overcast
9:35 AM 61.7 °F 54.5 °F 77% 30.16 in 10.0 mi SSE 6.9 mph - N/A   Overcast
9:55 AM 62.4 °F 55.2 °F 77% 30.17 in 10.0 mi ESE 11.5 mph - N/A   Overcast
10:15 AM 62.8 °F 55.0 °F 76% 30.18 in 10.0 mi SE 11.5 mph - N/A   Overcast
10:55 AM 65.3 °F 56.7 °F 74% 30.18 in 10.0 mi SE 10.4 mph - N/A   Overcast
11:15 AM 66.6 °F 57.9 °F 74% 30.18 in 10.0 mi SE 11.5 mph - N/A   Overcast
11:35 AM 68.0 °F 58.8 °F 72% 30.18 in 10.0 mi SE 12.7 mph 17.3 mph N/A   Overcast
11:55 AM 68.0 °F 58.1 °F 71% 30.18 in 10.0 mi SE 9.2 mph - N/A   Overcast
12:15 PM 68.0 °F 58.1 °F 71% 30.18 in 10.0 mi SE 9.2 mph 16.1 mph N/A   Overcast
12:35 PM 68.0 °F 57.2 °F 68% 30.18 in 10.0 mi SE 12.7 mph 17.3 mph N/A   Overcast
12:55 PM 68.0 °F 56.8 °F 67% 30.18 in 10.0 mi SSE 15.0 mph 20.7 mph N/A   Overcast
1:15 PM 68.7 °F 57.0 °F 66% 30.17 in 10.0 mi SE 12.7 mph - N/A   Overcast
1:35 PM 70.3 °F 58.1 °F 65% 30.16 in 10.0 mi SSE 15.0 mph 21.9 mph N/A   Overcast
1:55 PM 70.3 °F 58.1 °F 65% 30.15 in 10.0 mi SSE 17.3 mph 23.0 mph N/A   Overcast
2:15 PM 70.0 °F 58.1 °F 66% 30.15 in 10.0 mi SE 11.5 mph 23.0 mph N/A   Overcast
2:35 PM 70.3 °F 58.3 °F 66% 30.14 in 10.0 mi SSE 15.0 mph - N/A   Overcast
2:55 PM 72.9 °F 59.5 °F 63% 30.13 in 10.0 mi SSE 15.0 mph 19.6 mph N/A   Overcast
3:15 PM 71.6 °F 59.2 °F 65% 30.13 in 10.0 mi ESE 15.0 mph 19.6 mph N/A   Overcast
3:35 PM 70.3 °F 59.0 °F 67% 30.13 in 10.0 mi SE 13.8 mph - N/A   Overcast
3:55 PM 70.3 °F 59.0 °F 67% 30.12 in 10.0 mi SSE 11.5 mph 17.3 mph N/A   Overcast
4:15 PM 72.9 °F 59.7 °F 63% 30.11 in 10.0 mi SE 11.5 mph 16.1 mph N/A   Overcast
4:35 PM 72.9 °F 58.3 °F 60% 30.10 in 10.0 mi SE 15.0 mph 19.6 mph N/A   Overcast
4:55 PM 72.9 °F 57.7 °F 59% 30.09 in 10.0 mi SSE 15.0 mph 20.7 mph N/A   Overcast
5:15 PM 72.9 °F 57.6 °F 59% 30.09 in 10.0 mi SSE 15.0 mph - N/A   Overcast
5:35 PM 72.9 °F 59.2 °F 62% 30.09 in 10.0 mi SE 13.8 mph 18.4 mph N/A   Overcast
5:55 PM 72.9 °F 58.5 °F 60% 30.09 in 10.0 mi SE 13.8 mph 18.4 mph N/A   Overcast
6:15 PM 72.9 °F 60.1 °F 64% 30.10 in 10.0 mi ESE 15.0 mph 19.6 mph N/A   Overcast
6:35 PM 72.9 °F 60.1 °F 64% 30.10 in 10.0 mi SE 11.5 mph - N/A   Overcast
6:55 PM 70.3 °F 59.0 °F 67% 30.10 in 10.0 mi ESE 15.0 mph 21.9 mph N/A   Overcast
7:15 PM 70.3 °F 59.2 °F 68% 30.10 in 10.0 mi ESE 15.0 mph 19.6 mph N/A   Overcast
7:35 PM 70.3 °F 59.4 °F 68% 30.10 in 10.0 mi ESE 15.0 mph 19.6 mph N/A   Mostly Cloudy
7:55 PM 70.0 °F 59.2 °F 68% 30.11 in 10.0 mi ESE 10.4 mph - N/A   Overcast
8:15 PM 70.3 °F 59.2 °F 68% 30.12 in 10.0 mi ESE 12.7 mph - N/A   Overcast
8:35 PM 69.1 °F 58.1 °F 68% 30.12 in 10.0 mi ESE 12.7 mph - N/A   Overcast
8:55 PM 69.1 °F 57.7 °F 67% 30.12 in 10.0 mi ESE 9.2 mph - N/A   Overcast
9:15 PM 69.1 °F 58.1 °F 68% 30.13 in 10.0 mi ESE 11.5 mph 16.1 mph N/A   Overcast
9:35 PM 69.1 °F 58.1 °F 68% 30.13 in 10.0 mi ESE 11.5 mph 17.3 mph N/A   Overcast
9:55 PM 69.1 °F 58.3 °F 68% 30.13 in 10.0 mi ESE 12.7 mph 20.7 mph N/A   Overcast
10:15 PM 69.1 °F 58.1 °F 68% 30.14 in 10.0 mi SE 13.8 mph - N/A   Overcast
10:35 PM 68.4 °F 57.6 °F 68% 30.14 in 10.0 mi ESE 11.5 mph 18.4 mph N/A   Overcast
10:55 PM 68.2 °F 57.4 °F 68% 30.15 in 10.0 mi ESE 9.2 mph - N/A   Overcast
11:15 PM 68.0 °F 57.2 °F 68% 30.15 in 10.0 mi SE 10.4 mph - N/A   Overcast
11:55 PM 68.0 °F 57.2 °F 68% 30.16 in 10.0 mi SE 10.4 mph - N/A   Overcast